Regional Weather Roundup
Issued by NWS

Home | Current Version | Previous Version | Graphics & Text | Print | Product List | Glossary On
Versions: 1 2 3 4 5 6 7 8 9 10 11 12 13 14 15 16 17 18 19 20 21 22 23 24 25 26 27 28 29 30 31 32 33 34 35 36 37 38 39 40 41 42 43 44 45 46 47 48 49 50
000
ASUS43 KMKX 300711
RWRWI

WISCONSIN REGIONAL WEATHER ROUNDUP
NATIONAL WEATHER SERVICE MILWAUKEE/SULLIVAN WI
200 AM CDT MON MAY 30 2016

NOTE: "FAIR" INDICATES FEW OR NO CLOUDS BELOW 12,000 FEET WITH NO
SIGNIFICANT WEATHER AND/OR OBSTRUCTIONS TO VISIBILITY.

WIZ001-002-006>008-014>016-023>028-300800-
NORTHWEST WISCONSIN

CITY           SKY/WX    TMP DP  RH WIND       PRES   REMARKS
SUPERIOR ARPT  CLEAR     50  50  99 SW5       29.95R
ASHLAND        PTCLDY    55  51  86 SW7       29.94R
HAYWARD        PTCLDY    49  47  93 CALM      29.97S FOG
SIREN          CLEAR     53  50  92 CALM      29.98S
CUMBERLAND     CLEAR     54  52  94 S3        29.98F FOG
RICE LAKE      CLEAR     58  56  93 CALM      30.00S
CHETEK         PTCLDY    56  56 100 CALM      29.99S
LADYSMITH      PTCLDY    56  54  94 CALM      30.00R
EAU CLAIRE     CLEAR     59  56  89 CALM      29.97F
MENOMONIE      CLEAR     58  55  89 W6        29.99S
NEW RICHMOND   CLEAR     57  57 100 CALM      30.00R
OSCEOLA        CLEAR     55  55 100 CALM      30.02R
$$

WIZ003>005-009-010-017-018-300800-
NORTH CENTRAL WISCONSIN

CITY           SKY/WX    TMP DP  RH WIND       PRES   REMARKS
MANITOWISH WTR NOT AVBL
ARBOR VITAE    CLEAR     53  52  95 CALM      29.96S
WOODRUFF       CLEAR     53  52  95 CALM      29.96S
RHINELANDER    CLEAR     53  52  96 W5        29.97S FOG
EAGLE RIVER    FOG       50  50 100 CALM      29.95S VSB 1
LAND O LAKES   CLEAR     51  51 100 CALM      29.96S
PHILLIPS       CLEAR     50  50 100 CALM      29.97S FOG
TOMAHAWK       CLEAR     49  48  97 CALM      29.98S
MEDFORD        CLEAR     55  55 100 CALM      29.98S
MERRILL        CLEAR     52  52 100 CALM      29.98S FOG
$$

WIZ029-030-035-036-043>047-300800-
CENTRAL WISCONSIN

CITY           SKY/WX    TMP DP  RH WIND       PRES   REMARKS
WAUSAU         PTCLDY    62  57  83 NW5       29.96S
MOSINEE        PTCLDY    57  55  94 SW5       29.99S
MARSHFIELD     MOCLDY    59  55  87 CALM      29.98S
STEVENS POINT  LGT RAIN  60  56  86 W3        29.98S
WAUPACA        CLEAR     59  58  97 CALM      29.97F
WAUTOMA        CLOUDY   N/A N/A N/A CALM      29.99S
WISC RAPIDS    CLOUDY    62  56  80 N9        30.00R
CAMP DOUGLAS   PTCLDY    55  55 100 E3        29.98S
$$

WIZ011>013-019>022-031-037>040-048>050-300800-
NORTHEAST WISCONSIN

CITY           SKY/WX    TMP DP  RH WIND       PRES   REMARKS
ANTIGO         CLEAR     54  53  96 CALM      29.98S
SHAWANO        CLEAR     60  56  89 CALM      29.96S
OCONTO         PTCLDY   N/A N/A N/A CALM      29.94S
STURGEON BAY   NOT AVBL
GREEN BAY      CLEAR     61  57  87 W3        29.95S
MANITOWOC      CLEAR     62  57  83 SW8       29.96S
APPLETON       CLEAR     61  54  77 W7        29.96S
CLINTONVILLE   CLEAR     59  55  88 W6        29.96S
OSHKOSH        CLEAR     64  58  80 VRB5      29.97S
$$

WIZ032>034-041-042-053>061-300800-
SOUTHWEST WISCONSIN

CITY           SKY/WX    TMP DP  RH WIND       PRES   REMARKS
LA CROSSE      PTCLDY    63  60  90 S5        29.98F
SPARTA         PTCLDY    56  55  99 CALM      30.00S
VIROQUA        CLEAR     62  57  83 SW6       30.01S
BOSCOBEL       FOG       57  56  96 CALM      30.00S VSB 1/2
PRAIRIE DU CHI CLEAR     59  56  90 CALM      30.00S
PLATTEVILLE    PTCLDY    64  60  87 S3        30.01S
$$

WIZ056-057-062-063-064-067-068-300800-
SOUTH CENTRAL WISCONSIN

CITY           SKY/WX    TMP DP  RH WIND       PRES   REMARKS
REEDSBURG      MOCLDY    60  59  98 CALM      29.99S
BARABOO/DELLS  PTCLDY    60  57  90 CALM      29.99F
LONE ROCK      FOG       58  58 100 CALM      30.00F VSB 3/4
MINERAL POINT  PTCLDY    64  59  82 CALM      30.01F
MADISON        CLEAR     62  59  90 CALM      29.99S
MIDDLETON      CLEAR     61  59  94 CALM      30.00F
WATERTOWN      CLEAR     58  58 100 CALM      29.99S
MONROE           N/A     64  55  72 W10       30.01S
JANESVILLE     CLEAR     61  59  94 CALM      30.00S
$$

WIZ051-052-058>065-066-070>072-300800-
SOUTHEAST WISCONSIN

CITY           SKY/WX    TMP DP  RH WIND       PRES   REMARKS
MILWAUKEE      PTCLDY    68  57  68 W5        29.98S
WAUKESHA       CLEAR     63  54  72 W3        30.00S
MILWAUKEE/TIMM PTCLDY    63  54  72 W3        29.99S
RACINE         CLOUDY    68  58  70 W6        30.00S
BURLINGTON     CLEAR     58  57  97 CALM      30.00S
KENOSHA        PTCLDY    65  58  78 W7        29.99S
FOND DU LAC    CLEAR     62  59  90 SW6       29.98S
SHEBOYGAN      CLEAR     59  56  89 SW5       29.97S
WEST BEND      CLEAR     61  55  82 CALM      29.98F
JUNEAU         CLEAR     60  57  89 SW3       30.00S
$$

LSZ147-162-300800-
LAKE SUPERIOR

STATION/POSITION TIME  TEMP    WIND        PRES    WAVE
                       AIR SEA DIR/SP/G            HT/PER
                 (UTC) (F)     (DEG/KT/KT) (MB)    (FT/S)
W MID LAKE BUOY  0650   45 38  250/ 10/ 12 1012.0F   1
DEVILS ISLAND    0700   50     240/ 14/ 16 1013.0R
SAXON HARBOR     0600   54     200/  7/  8 1012.5
$$

LMZ867-665-643>646-300800-
LAKE MICHIGAN

STATION/POSITION TIME  TEMP    WIND        PRES    WAVE
                       AIR SEA DIR/SP/G            HT/PER
                 (UTC) (F)     (DEG/KT/KT) (MB)    (FT/S)
CHAMBERS ISLAND  0600   64     230/  5/ 10 1013.5R
N MID LAKE BUOY  0650   54 47  240/ 10/ 10 1012.8R   1/ 5
NORTHPORT PIER   0640   63     270/  4/ 10 1013.2R
KEWAUNEE LAKESHO 0600   63     300/  4/  5 1013.6R
SHEBOYGAN LAKESH 0700   65     260/  7/  9 1014.8F
PORT WASHINGTON  0600   67     290/  4/  6 1015.6R
S MID LAKE BUOY  0650   56 51  230/  8/  8 1014.8S   0
KENOSHA   LAKESH 0700   70     270/  9/ 13 1015.2R
$$

TC  - TEMPERATURE IN CELSIUS
VSB - VISIBILITY IN STATUTE MILES
WCI - WIND CHILL INDEX
HX  - HEAT INDEX




USA.gov is the U.S. government's official web portal to all federal, state and local government web resources and services.